Location: Proctor
(47.8934°N, 114.3048°W)
Time: 20:09:16
(UTC+00:00)

Tiros 1 despin weight - Pass Details

Date: 29 June 2024
Orbit: 576 x 620 km, 48.2° (Epoch: 19 July)

Event Time Altitude Azimuth Distance (km) Brightness Sun altitude
Rises 15:30:06 0° 183° (S) 2,849 ? 35.1°
Reaches altitude 10° 15:34:58 10° 136° (SE) 1,966 ? 35.9°
Maximum altitude 15:35:12 10° 133° (SE) 1,965 ? 35.9°
Drops below altitude 10° 15:35:30 10° 129° (SE) 1,970 ? 36.0°
Sets 15:40:21 0° 84° (E) 2,890 ? 36.8°
